Time,TemperatureF,DewpointF,PressureIn,WindDirection,WindDirectionDegrees,WindSpeedMPH,WindSpeedGustMPH,Humidity,HourlyPrecipIn,Conditions,Clouds,dailyrainin,SoftwareType,DateUTC
2013-02-20 00:00:00,43.5,27.5,25.37,East,90,3.8,6.5,53,0.00,,---,0.00,VWS V14.01,2013-02-20 06:00:00,
2013-02-20 00:05:00,43.5,26.6,25.37,East,90,0.0,0.0,51,0.00,,---,0.00,VWS V14.01,2013-02-20 06:05:00,
2013-02-20 00:10:00,43.3,26.4,25.37,ENE,68,2.9,3.4,51,0.00,,---,0.00,VWS V14.01,2013-02-20 06:10:00,
2013-02-20 00:15:00,43.3,26.9,25.37,ESE,112,3.4,3.4,52,0.00,,---,0.00,VWS V14.01,2013-02-20 06:15:00,
2013-02-20 00:20:00,43.2,26.7,25.37,SSE,158,3.8,3.8,52,0.00,,---,0.00,VWS V14.01,2013-02-20 06:20:00,
2013-02-20 00:25:00,43.2,26.3,25.37,SSE,158,1.6,2.0,51,0.00,,---,0.00,VWS V14.01,2013-02-20 06:25:00,
2013-02-20 00:30:00,43.0,26.1,25.37,SE,135,3.8,3.8,51,0.00,,---,0.00,VWS V14.01,2013-02-20 06:30:00,
2013-02-20 00:35:00,42.4,24.6,25.37,SSW,202,2.9,2.9,49,0.00,,---,0.00,VWS V14.01,2013-02-20 06:35:00,
2013-02-20 00:40:00,41.9,22.1,25.37,SW,225,3.1,3.1,45,0.00,,---,0.00,VWS V14.01,2013-02-20 06:40:00,
2013-02-20 00:45:00,41.7,21.4,25.34,South,180,2.0,2.0,44,0.00,,---,0.00,VWS V14.01,2013-02-20 06:45:00,
2013-02-20 00:50:00,41.5,21.3,25.34,South,180,4.0,4.0,44,0.00,,---,0.00,VWS V14.01,2013-02-20 06:50:00,
2013-02-20 00:55:00,41.5,21.3,25.34,SSE,158,3.1,3.1,44,0.00,,---,0.00,VWS V14.01,2013-02-20 06:55:00,
2013-02-20 01:00:00,41.5,21.3,25.34,SSE,158,4.3,4.3,44,0.00,,---,0.00,VWS V14.01,2013-02-20 07:00:00,
2013-02-20 01:05:00,41.5,21.8,25.34,South,180,2.2,2.2,45,0.00,,---,0.00,VWS V14.01,2013-02-20 07:05:00,
2013-02-20 01:10:00,41.5,21.3,25.34,South,180,2.0,2.5,44,0.00,,---,0.00,VWS V14.01,2013-02-20 07:10:00,
2013-02-20 01:15:00,41.5,21.3,25.34,South,180,3.1,3.1,44,0.00,,---,0.00,VWS V14.01,2013-02-20 07:15:00,
2013-02-20 01:20:00,41.5,21.3,25.34,South,180,2.5,2.7,44,0.00,,---,0.00,VWS V14.01,2013-02-20 07:20:00,
2013-02-20 01:25:00,41.5,21.3,25.34,SSW,202,0.0,0.0,44,0.00,,---,0.00,VWS V14.01,2013-02-20 07:25:00,
2013-02-20 01:30:00,41.5,21.3,25.34,SSE,158,2.5,3.1,44,0.00,,---,0.00,VWS V14.01,2013-02-20 07:30:00,
2013-02-20 01:35:00,41.7,21.4,25.34,SSW,202,1.3,1.6,44,0.00,,---,0.00,VWS V14.01,2013-02-20 07:35:00,
2013-02-20 01:40:00,41.5,21.8,25.34,SSE,158,2.7,2.9,45,0.00,,---,0.00,VWS V14.01,2013-02-20 07:40:00,
2013-02-20 01:45:00,41.9,22.1,25.34,South,180,0.0,0.0,45,0.00,,---,0.00,VWS V14.01,2013-02-20 07:45:00,
2013-02-20 01:50:00,41.5,21.8,25.34,West,270,4.0,4.3,45,0.00,,---,0.00,VWS V14.01,2013-02-20 07:50:00,
2013-02-20 01:55:00,41.5,21.3,25.34,West,270,0.0,0.0,44,0.00,,---,0.00,VWS V14.01,2013-02-20 07:55:00,
2013-02-20 02:00:00,41.5,21.3,25.31,West,270,3.8,3.8,44,0.00,,---,0.00,VWS V14.01,2013-02-20 08:00:00,
2013-02-20 02:05:00,41.5,20.7,25.31,WSW,248,0.9,0.9,43,0.00,,---,0.00,VWS V14.01,2013-02-20 08:05:00,
2013-02-20 02:10:00,41.5,21.8,25.31,SE,135,3.1,3.1,45,0.00,,---,0.00,VWS V14.01,2013-02-20 08:10:00,
2013-02-20 02:15:00,41.7,22.0,25.28,SE,135,4.9,4.9,45,0.00,,---,0.00,VWS V14.01,2013-02-20 08:15:00,
2013-02-20 02:20:00,41.7,22.0,25.28,SSE,158,2.7,3.1,45,0.00,,---,0.00,VWS V14.01,2013-02-20 08:20:00,
2013-02-20 02:25:00,41.5,21.8,25.28,South,180,3.6,4.9,45,0.00,,---,0.00,VWS V14.01,2013-02-20 08:25:00,
2013-02-20 02:30:00,41.5,22.3,25.31,SE,135,4.9,4.9,46,0.00,,---,0.00,VWS V14.01,2013-02-20 08:30:00,
2013-02-20 02:35:00,41.7,22.5,25.31,SSE,158,5.4,6.3,46,0.00,,---,0.00,VWS V14.01,2013-02-20 08:35:00,
2013-02-20 02:40:00,41.9,24.1,25.31,SSE,158,5.8,5.8,49,0.00,,---,0.00,VWS V14.01,2013-02-20 08:40:00,
2013-02-20 02:45:00,42.1,26.6,25.31,SSE,158,3.6,4.3,54,0.00,,---,0.00,VWS V14.01,2013-02-20 08:45:00,
2013-02-20 02:50:00,41.9,26.5,25.31,ESE,112,7.2,7.2,54,0.00,,---,0.00,VWS V14.01,2013-02-20 08:50:00,
2013-02-20 02:55:00,41.7,27.6,25.31,SE,135,7.8,8.7,57,0.00,,---,0.00,VWS V14.01,2013-02-20 08:55:00,
2013-02-20 03:00:00,41.5,27.0,25.31,SE,135,3.1,4.0,56,0.00,,---,0.00,VWS V14.01,2013-02-20 09:00:00,
2013-02-20 03:05:00,41.0,26.5,25.31,SE,135,3.6,4.0,56,0.00,,---,0.00,VWS V14.01,2013-02-20 09:05:00,
2013-02-20 03:10:00,40.5,26.4,25.31,SSE,158,5.4,5.6,57,0.00,,---,0.00,VWS V14.01,2013-02-20 09:10:00,
2013-02-20 03:15:00,40.6,27.5,25.34,South,180,4.3,4.3,59,0.00,,---,0.00,VWS V14.01,2013-02-20 09:15:00,
2013-02-20 03:20:00,40.5,27.7,25.34,SE,135,4.0,4.3,60,0.00,,---,0.00,VWS V14.01,2013-02-20 09:20:00,
2013-02-20 03:25:00,40.8,28.4,25.34,SSE,158,3.8,4.9,61,0.00,,---,0.00,VWS V14.01,2013-02-20 09:25:00,
2013-02-20 03:30:00,40.6,27.5,25.28,South,180,4.0,4.0,59,0.00,,---,0.00,VWS V14.01,2013-02-20 09:30:00,
2013-02-20 03:35:00,40.1,26.9,25.28,South,180,3.1,3.4,59,0.00,,---,0.00,VWS V14.01,2013-02-20 09:35:00,
2013-02-20 03:40:00,39.7,27.0,25.28,SSE,158,7.2,7.2,60,0.00,,---,0.00,VWS V14.01,2013-02-20 09:40:00,
2013-02-20 03:45:00,41.0,29.4,25.28,South,180,7.8,7.8,63,0.00,,---,0.00,VWS V14.01,2013-02-20 09:45:00,
2013-02-20 03:50:00,41.5,29.1,25.28,SSE,158,7.8,7.8,61,0.00,,---,0.00,VWS V14.01,2013-02-20 09:50:00,
2013-02-20 03:55:00,41.9,29.0,25.28,SW,225,7.8,10.3,60,0.00,,---,0.00,VWS V14.01,2013-02-20 09:55:00,
2013-02-20 04:00:00,42.3,28.1,25.25,SSE,158,10.1,12.3,57,0.00,,---,0.00,VWS V14.01,2013-02-20 10:00:00,
2013-02-20 04:05:00,43.0,27.9,25.25,SSW,202,8.5,8.5,55,0.00,,---,0.00,VWS V14.01,2013-02-20 10:05:00,
2013-02-20 04:10:00,43.9,28.3,25.25,SSE,158,8.5,8.5,54,0.00,,---,0.00,VWS V14.01,2013-02-20 10:10:00,
2013-02-20 04:15:00,43.7,27.2,25.25,SE,135,7.8,7.8,52,0.00,,---,0.00,VWS V14.01,2013-02-20 10:15:00,
2013-02-20 04:20:00,43.5,27.5,25.25,SE,135,8.1,10.5,53,0.00,,---,0.00,VWS V14.01,2013-02-20 10:20:00,
2013-02-20 04:25:00,43.3,27.4,25.25,SSE,158,12.5,12.5,53,0.00,,---,0.00,VWS V14.01,2013-02-20 10:25:00,
2013-02-20 04:30:00,43.0,27.5,25.22,SSE,158,12.5,12.5,54,0.00,,---,0.00,VWS V14.01,2013-02-20 10:30:00,
2013-02-20 04:35:00,43.2,27.7,25.22,South,180,10.5,10.5,54,0.00,,---,0.00,VWS V14.01,2013-02-20 10:35:00,
2013-02-20 04:40:00,43.5,28.0,25.22,South,180,8.1,10.5,54,0.00,,---,0.00,VWS V14.01,2013-02-20 10:40:00,
2013-02-20 04:45:00,44.2,28.2,25.25,SE,135,12.3,14.3,53,0.00,,---,0.00,VWS V14.01,2013-02-20 10:45:00,
2013-02-20 04:50:00,43.7,27.7,25.25,SSE,158,8.7,13.0,53,0.00,,---,0.00,VWS V14.01,2013-02-20 10:50:00,
2013-02-20 04:55:00,43.7,28.2,25.25,SSE,158,8.1,10.3,54,0.00,,---,0.00,VWS V14.01,2013-02-20 10:55:00,
2013-02-20 05:00:00,43.5,28.0,25.25,South,180,10.1,19.0,54,0.00,,---,0.00,VWS V14.01,2013-02-20 11:00:00,
2013-02-20 05:05:00,43.9,28.3,25.25,SSE,158,8.1,8.5,54,0.00,,---,0.00,VWS V14.01,2013-02-20 11:05:00,
2013-02-20 05:10:00,43.7,28.6,25.25,ESE,112,11.4,17.2,55,0.00,,---,0.00,VWS V14.01,2013-02-20 11:10:00,
2013-02-20 05:15:00,43.7,28.6,25.25,South,180,12.3,14.5,55,0.00,,---,0.00,VWS V14.01,2013-02-20 11:15:00,
2013-02-20 05:20:00,43.5,28.4,25.25,SSE,158,13.0,13.0,55,0.00,,---,0.00,VWS V14.01,2013-02-20 11:20:00,
2013-02-20 05:25:00,43.2,28.5,25.25,SSE,158,14.1,14.1,56,0.00,,---,0.00,VWS V14.01,2013-02-20 11:25:00,
2013-02-20 05:30:00,43.0,28.8,25.25,SSE,158,7.6,10.3,57,0.00,,---,0.00,VWS V14.01,2013-02-20 11:30:00,
2013-02-20 05:35:00,42.6,28.5,25.25,SSE,158,10.3,13.2,57,0.00,,---,0.00,VWS V14.01,2013-02-20 11:35:00,
2013-02-20 05:40:00,43.0,28.8,25.25,SSE,158,12.8,12.8,57,0.00,,---,0.00,VWS V14.01,2013-02-20 11:40:00,
2013-02-20 05:45:00,43.3,28.7,25.25,ESE,112,12.3,12.3,56,0.00,,---,0.00,VWS V14.01,2013-02-20 11:45:00,
2013-02-20 05:50:00,43.5,28.9,25.25,SSE,158,12.3,12.3,56,0.00,,---,0.00,VWS V14.01,2013-02-20 11:50:00,
2013-02-20 05:55:00,43.5,28.4,25.25,South,180,17.0,17.0,55,0.00,,---,0.00,VWS V14.01,2013-02-20 11:55:00,
2013-02-20 06:00:00,43.3,28.3,25.25,SSE,158,8.7,8.7,55,0.00,,---,0.00,VWS V14.01,2013-02-20 12:00:00,
2013-02-20 06:05:00,43.0,28.4,25.25,South,180,7.8,8.5,56,0.00,,---,0.00,VWS V14.01,2013-02-20 12:05:00,
2013-02-20 06:10:00,42.8,28.6,25.25,WSW,248,7.6,7.6,57,0.00,,---,0.00,VWS V14.01,2013-02-20 12:10:00,
2013-02-20 06:15:00,42.8,28.2,25.25,SE,135,3.8,3.8,56,0.00,,---,0.00,VWS V14.01,2013-02-20 12:15:00,
2013-02-20 06:20:00,42.4,28.7,25.25,SSW,202,2.0,5.4,58,0.00,,---,0.00,VWS V14.01,2013-02-20 12:20:00,
2013-02-20 06:25:00,41.7,28.0,25.25,SSW,202,2.5,3.8,58,0.00,,---,0.00,VWS V14.01,2013-02-20 12:25:00,
2013-02-20 06:30:00,41.7,28.9,25.22,South,180,3.1,3.1,60,0.00,,---,0.00,VWS V14.01,2013-02-20 12:30:00,
2013-02-20 06:35:00,41.5,29.1,25.22,South,180,3.8,3.8,61,0.00,,---,0.00,VWS V14.01,2013-02-20 12:35:00,
2013-02-20 06:40:00,41.4,29.7,25.22,SSE,158,11.0,11.0,63,0.00,,---,0.00,VWS V14.01,2013-02-20 12:40:00,
2013-02-20 06:45:00,41.7,30.1,25.22,South,180,19.9,19.9,63,0.00,,---,0.00,VWS V14.01,2013-02-20 12:45:00,
2013-02-20 06:50:00,42.1,30.0,25.22,ESE,112,10.3,17.7,62,0.00,,---,0.00,VWS V14.01,2013-02-20 12:50:00,
2013-02-20 06:55:00,42.3,30.2,25.22,SE,135,16.1,17.0,62,0.00,,---,0.00,VWS V14.01,2013-02-20 12:55:00,
2013-02-20 07:00:00,42.3,29.8,25.22,SSE,158,15.7,19.0,61,0.00,,---,0.00,VWS V14.01,2013-02-20 13:00:00,
2013-02-20 07:05:00,42.4,30.0,25.22,ESE,112,12.8,15.4,61,0.00,,---,0.00,VWS V14.01,2013-02-20 13:05:00,
2013-02-20 07:10:00,42.4,30.0,25.22,SE,135,13.2,26.0,61,0.00,,---,0.00,VWS V14.01,2013-02-20 13:10:00,
2013-02-20 07:15:00,42.4,30.0,25.22,SSE,158,19.2,19.2,61,0.00,,---,0.00,VWS V14.01,2013-02-20 13:15:00,
2013-02-20 07:20:00,42.6,29.7,25.22,SSE,158,14.8,17.5,60,0.00,,---,0.00,VWS V14.01,2013-02-20 13:20:00,
2013-02-20 07:25:00,42.8,29.9,25.22,South,180,16.3,20.6,60,0.00,,---,0.00,VWS V14.01,2013-02-20 13:25:00,
2013-02-20 07:30:00,43.0,29.6,25.25,SSE,158,15.2,21.9,59,0.00,,---,0.00,VWS V14.01,2013-02-20 13:30:00,
2013-02-20 07:35:00,43.0,29.6,25.25,SSE,158,15.4,15.4,59,0.00,,---,0.00,VWS V14.01,2013-02-20 13:35:00,
2013-02-20 07:40:00,43.0,29.6,25.25,SSE,158,12.8,22.6,59,0.00,,---,0.00,VWS V14.01,2013-02-20 13:40:00,
2013-02-20 07:45:00,43.3,30.0,25.25,SSE,158,17.2,23.3,59,0.00,,---,0.00,VWS V14.01,2013-02-20 13:45:00,
2013-02-20 07:50:00,43.5,29.7,25.25,SSE,158,12.1,12.1,58,0.00,,---,0.00,VWS V14.01,2013-02-20 13:50:00,
2013-02-20 07:55:00,43.7,29.9,25.25,SSE,158,15.9,15.9,58,0.00,,---,0.00,VWS V14.01,2013-02-20 13:55:00,
2013-02-20 08:00:00,44.4,30.2,25.25,SSE,158,17.5,17.5,57,0.00,,---,0.00,VWS V14.01,2013-02-20 14:00:00,
2013-02-20 08:05:00,45.1,30.0,25.25,ESE,112,17.0,18.6,55,0.00,,---,0.00,VWS V14.01,2013-02-20 14:05:00,
2013-02-20 08:10:00,45.9,29.7,25.25,SSE,158,19.2,19.2,53,0.00,,---,0.00,VWS V14.01,2013-02-20 14:10:00,
2013-02-20 08:15:00,46.2,29.6,25.25,SSE,158,14.3,25.1,52,0.00,,---,0.00,VWS V14.01,2013-02-20 14:15:00,
2013-02-20 08:20:00,46.2,29.6,25.25,SE,135,10.3,10.7,52,0.00,,---,0.00,VWS V14.01,2013-02-20 14:20:00,
2013-02-20 08:25:00,46.6,29.4,25.25,SSE,158,15.4,15.4,51,0.00,,---,0.00,VWS V14.01,2013-02-20 14:25:00,
2013-02-20 08:30:00,47.5,29.8,25.25,South,180,12.5,17.2,50,0.00,,---,0.00,VWS V14.01,2013-02-20 14:30:00,
2013-02-20 08:35:00,48.0,29.8,25.25,SSE,158,17.5,24.6,49,0.00,,---,0.00,VWS V14.01,2013-02-20 14:35:00,
2013-02-20 08:40:00,48.2,29.5,25.25,SSE,158,21.5,21.5,48,0.00,,---,0.00,VWS V14.01,2013-02-20 14:40:00,
2013-02-20 08:45:00,48.4,29.6,25.25,SSE,158,17.0,19.2,48,0.00,,---,0.00,VWS V14.01,2013-02-20 14:45:00,
2013-02-20 08:50:00,48.9,29.6,25.25,SSE,158,22.8,22.8,47,0.04,,---,0.04,VWS V14.01,2013-02-20 14:50:00,
2013-02-20 08:55:00,49.3,29.9,25.25,SE,135,16.6,18.6,47,0.04,,---,0.04,VWS V14.01,2013-02-20 14:55:00,
2013-02-20 09:00:00,49.6,30.2,25.25,SSE,158,24.2,24.2,47,0.04,,---,0.04,VWS V14.01,2013-02-20 15:00:00,
2013-02-20 09:05:00,50.2,29.7,25.25,SE,135,23.0,23.0,45,0.04,,---,0.04,VWS V14.01,2013-02-20 15:05:00,
2013-02-20 09:10:00,50.5,29.5,25.25,South,180,17.7,17.7,44,0.04,,---,0.04,VWS V14.01,2013-02-20 15:10:00,
2013-02-20 09:15:00,51.1,30.0,25.22,South,180,22.2,25.5,44,0.04,,---,0.04,VWS V14.01,2013-02-20 15:15:00,
2013-02-20 09:20:00,51.3,29.5,25.22,SSE,158,23.5,23.5,43,0.08,,---,0.08,VWS V14.01,2013-02-20 15:20:00,
2013-02-20 09:25:00,52.0,29.6,25.22,South,180,22.2,23.7,42,0.08,,---,0.08,VWS V14.01,2013-02-20 15:25:00,
2013-02-20 09:30:00,52.9,29.8,25.22,SSE,158,18.1,18.1,41,0.08,,---,0.08,VWS V14.01,2013-02-20 15:30:00,
2013-02-20 09:35:00,54.1,29.8,25.22,SSE,158,12.8,15.7,39,0.08,,---,0.08,VWS V14.01,2013-02-20 15:35:00,
2013-02-20 09:40:00,54.5,30.1,25.22,SSE,158,7.8,12.5,39,0.08,,---,0.08,VWS V14.01,2013-02-20 15:40:00,
2013-02-20 09:45:00,55.6,29.7,25.22,SSE,158,17.5,17.5,37,0.08,,---,0.08,VWS V14.01,2013-02-20 15:45:00,
2013-02-20 09:50:00,56.1,29.5,25.22,SSE,158,19.9,25.1,36,0.04,,---,0.08,VWS V14.01,2013-02-20 15:50:00,
2013-02-20 09:55:00,57.2,29.8,25.22,SSE,158,13.2,13.2,35,0.04,,---,0.08,VWS V14.01,2013-02-20 15:55:00,
2013-02-20 10:00:00,57.4,30.0,25.22,SSW,202,15.2,23.0,35,0.08,,---,0.12,VWS V14.01,2013-02-20 16:00:00,
2013-02-20 10:05:00,57.9,30.5,25.22,SE,135,9.8,9.8,35,0.12,,---,0.16,VWS V14.01,2013-02-20 16:05:00,
2013-02-20 10:10:00,58.3,30.8,25.22,South,180,18.8,18.8,35,0.12,,---,0.16,VWS V14.01,2013-02-20 16:10:00,
2013-02-20 10:15:00,58.8,30.5,25.22,SSW,202,23.5,23.5,34,0.12,,---,0.16,VWS V14.01,2013-02-20 16:15:00,
2013-02-20 10:20:00,59.2,30.9,25.22,SSE,158,15.2,16.8,34,0.08,,---,0.16,VWS V14.01,2013-02-20 16:20:00,
2013-02-20 10:25:00,59.9,30.0,25.22,South,180,25.3,25.3,32,0.08,,---,0.16,VWS V14.01,2013-02-20 16:25:00,
2013-02-20 10:30:00,60.3,30.3,25.22,South,180,22.2,22.2,32,0.08,,---,0.16,VWS V14.01,2013-02-20 16:30:00,
2013-02-20 10:35:00,60.4,29.7,25.22,SSE,158,21.9,21.9,31,0.08,,---,0.16,VWS V14.01,2013-02-20 16:35:00,
2013-02-20 10:40:00,60.3,28.7,25.22,SW,225,16.1,24.2,30,0.08,,---,0.16,VWS V14.01,2013-02-20 16:40:00,
2013-02-20 10:45:00,60.6,29.0,25.22,SSE,158,19.7,19.7,30,0.08,,---,0.16,VWS V14.01,2013-02-20 16:45:00,
2013-02-20 10:50:00,61.0,29.4,25.22,SSW,202,22.6,22.6,30,0.08,,---,0.16,VWS V14.01,2013-02-20 16:50:00,
2013-02-20 10:55:00,61.7,29.1,25.22,South,180,12.8,17.2,29,0.08,,---,0.16,VWS V14.01,2013-02-20 16:55:00,
2013-02-20 11:00:00,62.8,29.2,25.22,South,180,11.9,11.9,28,0.04,,---,0.16,VWS V14.01,2013-02-20 17:00:00,
2013-02-20 11:05:00,63.5,29.8,25.22,SSE,158,15.4,15.4,28,0.00,,---,0.16,VWS V14.01,2013-02-20 17:05:00,
2013-02-20 11:10:00,63.0,28.5,25.22,SE,135,11.0,13.0,27,0.00,,---,0.16,VWS V14.01,2013-02-20 17:10:00,
2013-02-20 11:15:00,63.1,27.7,25.19,SE,135,18.6,18.6,26,0.00,,---,0.16,VWS V14.01,2013-02-20 17:15:00,
2013-02-20 11:20:00,63.5,28.0,25.19,South,180,23.5,23.5,26,0.04,,---,0.20,VWS V14.01,2013-02-20 17:20:00,
2013-02-20 11:25:00,63.7,28.2,25.19,SSE,158,18.1,18.1,26,0.08,,---,0.24,VWS V14.01,2013-02-20 17:25:00,
2013-02-20 11:30:00,64.0,27.5,25.19,South,180,17.7,17.7,25,0.08,,---,0.24,VWS V14.01,2013-02-20 17:30:00,
2013-02-20 11:35:00,64.8,27.2,25.19,South,180,26.2,26.2,24,0.08,,---,0.24,VWS V14.01,2013-02-20 17:35:00,
2013-02-20 11:40:00,65.5,26.7,25.19,SSW,202,10.5,13.6,23,0.08,,---,0.24,VWS V14.01,2013-02-20 17:40:00,
2013-02-20 11:45:00,66.2,27.3,25.19,SSW,202,6.0,10.3,23,0.08,,---,0.24,VWS V14.01,2013-02-20 17:45:00,
2013-02-20 11:50:00,66.2,27.3,25.19,SSW,202,23.5,24.2,23,0.08,,---,0.24,VWS V14.01,2013-02-20 17:50:00,
2013-02-20 11:55:00,66.6,27.6,25.19,SSE,158,14.5,14.5,23,0.08,,---,0.24,VWS V14.01,2013-02-20 17:55:00,
2013-02-20 12:00:00,66.9,26.9,25.19,South,180,19.9,25.3,22,0.08,,---,0.24,VWS V14.01,2013-02-20 18:00:00,
2013-02-20 12:05:00,66.7,27.8,25.19,South,180,13.2,13.2,23,0.08,,---,0.24,VWS V14.01,2013-02-20 18:05:00,
2013-02-20 12:10:00,66.4,26.4,25.19,South,180,23.7,23.7,22,0.13,,---,0.29,VWS V14.01,2013-02-20 18:10:00,
2013-02-20 12:15:00,66.7,27.8,25.19,SE,135,10.7,21.9,23,0.21,,---,0.37,VWS V14.01,2013-02-20 18:15:00,
2013-02-20 12:20:00,66.9,26.9,25.19,SSE,158,25.5,25.5,22,0.21,,---,0.41,VWS V14.01,2013-02-20 18:20:00,
2013-02-20 12:25:00,67.1,28.1,25.19,SSE,158,10.5,10.5,23,0.17,,---,0.41,VWS V14.01,2013-02-20 18:25:00,
2013-02-20 12:30:00,68.2,27.9,25.19,SSW,202,8.7,11.0,22,0.17,,---,0.41,VWS V14.01,2013-02-20 18:30:00,
2013-02-20 12:35:00,68.0,21.6,25.19,South,180,9.8,17.2,17,0.17,,---,0.41,VWS V14.01,2013-02-20 18:35:00,
2013-02-20 12:40:00,68.2,25.6,25.19,SSE,158,14.5,14.5,20,0.25,,---,0.49,VWS V14.01,2013-02-20 18:40:00,
2013-02-20 12:45:00,68.0,21.6,25.19,SSW,202,13.0,13.0,17,0.29,,---,0.53,VWS V14.01,2013-02-20 18:45:00,
2013-02-20 12:50:00,69.1,22.5,25.19,SSW,202,12.8,12.8,17,0.29,,---,0.53,VWS V14.01,2013-02-20 18:50:00,
2013-02-20 12:55:00,69.1,22.5,25.19,South,180,12.3,12.3,17,0.29,,---,0.53,VWS V14.01,2013-02-20 18:55:00,
2013-02-20 13:00:00,68.5,19.1,25.13,South,180,11.2,15.9,15,0.34,,---,0.58,VWS V14.01,2013-02-20 19:00:00,
2013-02-20 13:05:00,69.1,19.5,25.13,South,180,18.1,18.1,15,0.50,,---,0.74,VWS V14.01,2013-02-20 19:05:00,
2013-02-20 13:10:00,68.7,19.2,25.13,SSE,158,10.7,23.0,15,0.62,,---,0.91,VWS V14.01,2013-02-20 19:10:00,
2013-02-20 13:15:00,69.4,19.8,25.13,South,180,13.6,13.6,15,0.58,,---,0.95,VWS V14.01,2013-02-20 19:15:00,
2013-02-20 13:20:00,69.1,19.5,25.13,South,180,10.5,15.4,15,0.75,,---,1.16,VWS V14.01,2013-02-20 19:20:00,
2013-02-20 13:25:00,69.1,19.5,25.13,West,270,16.6,19.7,15,0.75,,---,1.16,VWS V14.01,2013-02-20 19:25:00,
2013-02-20 13:30:00,69.8,18.5,25.13,South,180,13.2,13.2,14,0.88,,---,1.29,VWS V14.01,2013-02-20 19:30:00,
2013-02-20 13:35:00,70.0,18.6,25.13,South,180,15.7,15.7,14,0.88,,---,1.29,VWS V14.01,2013-02-20 19:35:00,
2013-02-20 13:40:00,69.6,20.0,25.13,South,180,16.1,18.8,15,0.80,,---,1.29,VWS V14.01,2013-02-20 19:40:00,
2013-02-20 13:45:00,69.4,19.8,25.13,SSW,202,10.5,12.1,15,0.88,,---,1.41,VWS V14.01,2013-02-20 19:45:00,
2013-02-20 13:50:00,70.5,19.1,25.13,SSE,158,17.7,17.7,14,0.97,,---,1.50,VWS V14.01,2013-02-20 19:50:00,
2013-02-20 13:55:00,69.6,20.0,25.13,South,180,22.2,22.2,15,1.09,,---,1.62,VWS V14.01,2013-02-20 19:55:00,
2013-02-20 14:00:00,71.1,19.5,25.10,South,180,12.8,12.8,14,1.08,,---,1.66,VWS V14.01,2013-02-20 20:00:00,
2013-02-20 14:05:00,70.2,18.8,25.10,SSE,158,25.3,25.3,14,1.05,,---,1.79,VWS V14.01,2013-02-20 20:05:00,
2013-02-20 14:10:00,70.2,18.8,25.10,SSW,202,22.6,22.6,14,57.94,,---,58.85,VWS V14.01,2013-02-20 20:10:00,
2013-02-20 14:15:00,71.4,19.8,25.04,South,180,11.0,11.9,14,57.90,,---,58.85,VWS V14.01,2013-02-20 20:15:00,
2013-02-20 14:20:00,70.7,19.2,25.04,SSW,202,23.7,23.7,14,57.69,,---,58.85,VWS V14.01,2013-02-20 20:20:00,
2013-02-20 14:25:00,70.5,19.1,25.04,SSW,202,19.2,19.2,14,57.69,,---,58.85,VWS V14.01,2013-02-20 20:25:00,
2013-02-20 14:30:00,71.1,19.5,25.10,South,180,22.4,23.7,14,57.56,,---,58.85,VWS V14.01,2013-02-20 20:30:00,
2013-02-20 14:35:00,71.1,19.5,25.10,South,180,25.5,25.5,14,57.56,,---,58.85,VWS V14.01,2013-02-20 20:35:00,
2013-02-20 14:40:00,71.6,19.9,25.10,SSW,202,13.4,13.4,14,57.56,,---,58.85,VWS V14.01,2013-02-20 20:40:00,
2013-02-20 14:45:00,72.5,20.6,25.07,SSW,202,13.6,18.1,14,57.44,,---,58.85,VWS V14.01,2013-02-20 20:45:00,
2013-02-20 14:50:00,72.1,20.4,25.07,South,180,15.4,15.4,14,57.35,,---,58.85,VWS V14.01,2013-02-20 20:50:00,
2013-02-20 14:55:00,72.0,20.2,25.07,SSW,202,17.7,17.7,14,57.23,,---,58.85,VWS V14.01,2013-02-20 20:55:00,
2013-02-20 15:00:00,72.3,20.5,25.04,SSW,202,26.0,26.0,14,57.19,,---,58.85,VWS V14.01,2013-02-20 21:00:00,
2013-02-20 15:05:00,73.4,19.6,25.04,South,180,22.4,22.4,13,57.06,,---,58.85,VWS V14.01,2013-02-20 21:05:00,
2013-02-20 15:10:00,73.6,19.8,25.04,South,180,14.1,14.1,13,0.00,,---,58.85,VWS V14.01,2013-02-20 21:10:00,
2013-02-20 15:15:00,73.8,19.9,25.04,SW,225,25.7,32.2,13,0.00,,---,58.85,VWS V14.01,2013-02-20 21:15:00,
2013-02-20 15:20:00,74.1,20.2,25.04,SSW,202,22.6,22.8,13,0.00,,---,58.85,VWS V14.01,2013-02-20 21:20:00,
2013-02-20 15:25:00,73.8,19.9,25.04,SSW,202,18.6,18.6,13,0.00,,---,58.85,VWS V14.01,2013-02-20 21:25:00,
2013-02-20 15:30:00,74.7,20.6,25.01,SSW,202,22.6,23.3,13,0.00,,---,58.85,VWS V14.01,2013-02-20 21:30:00,
2013-02-20 15:35:00,73.8,19.9,25.01,SW,225,29.5,29.5,13,0.00,,---,58.85,VWS V14.01,2013-02-20 21:35:00,
2013-02-20 15:40:00,73.9,20.0,25.01,SW,225,26.0,26.0,13,0.00,,---,58.85,VWS V14.01,2013-02-20 21:40:00,
2013-02-20 15:45:00,74.3,20.3,25.01,SW,225,20.1,20.1,13,0.00,,---,58.85,VWS V14.01,2013-02-20 21:45:00,
2013-02-20 15:50:00,74.3,20.3,25.01,SW,225,14.8,19.5,13,0.00,,---,58.85,VWS V14.01,2013-02-20 21:50:00,
2013-02-20 15:55:00,74.7,20.6,25.01,SSW,202,14.1,21.9,13,0.00,,---,58.85,VWS V14.01,2013-02-20 21:55:00,
2013-02-20 16:00:00,74.7,20.6,24.98,SSW,202,19.2,19.2,13,0.00,,---,58.85,VWS V14.01,2013-02-20 22:00:00,
2013-02-20 16:05:00,74.1,20.2,24.98,SSW,202,15.2,17.7,13,0.00,,---,58.85,VWS V14.01,2013-02-20 22:05:00,
2013-02-20 16:10:00,75.2,21.0,24.98,SSE,158,17.0,17.0,13,0.00,,---,58.85,VWS V14.01,2013-02-20 22:10:00,
2013-02-20 16:15:00,75.2,21.0,25.01,SSW,202,20.6,21.5,13,0.00,,---,58.85,VWS V14.01,2013-02-20 22:15:00,
2013-02-20 16:20:00,75.2,21.0,25.01,South,180,13.0,16.1,13,0.00,,---,58.85,VWS V14.01,2013-02-20 22:20:00,
2013-02-20 16:25:00,75.0,20.9,25.01,SSW,202,15.2,19.7,13,0.00,,---,58.85,VWS V14.01,2013-02-20 22:25:00,
2013-02-20 16:30:00,74.7,20.6,25.01,South,180,15.4,17.5,13,0.00,,---,58.85,VWS V14.01,2013-02-20 22:30:00,
2013-02-20 16:35:00,75.7,21.5,25.01,SW,225,19.2,19.2,13,0.00,,---,58.85,VWS V14.01,2013-02-20 22:35:00,
2013-02-20 16:40:00,75.2,21.0,25.01,SSE,158,21.9,21.9,13,0.00,,---,58.85,VWS V14.01,2013-02-20 22:40:00,
2013-02-20 16:45:00,75.0,20.9,24.98,SW,225,28.0,28.0,13,0.00,,---,58.85,VWS V14.01,2013-02-20 22:45:00,
2013-02-20 16:50:00,75.0,20.9,24.98,SW,225,15.4,15.4,13,0.00,,---,58.85,VWS V14.01,2013-02-20 22:50:00,
2013-02-20 16:55:00,75.2,21.0,24.98,SSW,202,10.7,17.0,13,0.00,,---,58.85,VWS V14.01,2013-02-20 22:55:00,
2013-02-20 17:00:00,75.6,21.3,24.95,South,180,10.1,10.1,13,0.00,,---,58.85,VWS V14.01,2013-02-20 23:00:00,
2013-02-20 17:05:00,75.6,21.3,24.95,South,180,10.1,11.0,13,0.00,,---,58.85,VWS V14.01,2013-02-20 23:05:00,
2013-02-20 17:10:00,75.6,21.3,24.95,South,180,13.4,13.4,13,0.00,,---,58.85,VWS V14.01,2013-02-20 23:10:00,
2013-02-20 17:15:00,75.4,21.2,24.95,South,180,18.1,22.2,13,0.00,,---,58.85,VWS V14.01,2013-02-20 23:15:00,
2013-02-20 17:20:00,75.4,21.2,24.95,SSW,202,15.4,15.4,13,0.00,,---,58.85,VWS V14.01,2013-02-20 23:20:00,
2013-02-20 17:25:00,75.6,21.3,24.95,SSW,202,10.5,10.7,13,0.00,,---,58.85,VWS V14.01,2013-02-20 23:25:00,
2013-02-20 17:30:00,75.0,20.9,24.95,SSW,202,23.5,23.5,13,0.00,,---,58.85,VWS V14.01,2013-02-20 23:30:00,
2013-02-20 17:35:00,74.7,20.6,24.95,SW,225,19.9,27.3,13,0.00,,---,58.85,VWS V14.01,2013-02-20 23:35:00,
2013-02-20 17:40:00,74.8,20.7,24.95,SSW,202,13.2,13.2,13,0.00,,---,58.85,VWS V14.01,2013-02-20 23:40:00,
2013-02-20 17:45:00,74.7,20.6,24.95,SSW,202,15.2,15.2,13,0.00,,---,58.85,VWS V14.01,2013-02-20 23:45:00,
2013-02-20 17:50:00,74.5,20.5,24.95,SW,225,12.8,22.2,13,0.00,,---,58.85,VWS V14.01,2013-02-20 23:50:00,
2013-02-20 17:55:00,74.3,20.3,24.95,SSW,202,22.2,22.2,13,0.00,,---,58.85,VWS V14.01,2013-02-20 23:55:00,
2013-02-20 18:00:00,74.1,20.2,24.92,South,180,17.0,19.7,13,0.00,,---,58.85,VWS V14.01,2013-02-21 00:00:00,
2013-02-20 18:05:00,73.9,20.0,24.92,SSW,202,15.2,15.2,13,0.00,,---,58.85,VWS V14.01,2013-02-21 00:05:00,
2013-02-20 18:10:00,73.8,19.9,24.92,SSW,202,25.1,25.1,13,0.00,,---,58.85,VWS V14.01,2013-02-21 00:10:00,
2013-02-20 18:15:00,73.4,19.6,24.95,SSW,202,28.0,28.0,13,0.00,,---,58.85,VWS V14.01,2013-02-21 00:15:00,
2013-02-20 18:20:00,73.6,19.8,24.95,SSW,202,22.8,22.8,13,0.00,,---,58.85,VWS V14.01,2013-02-21 00:20:00,
2013-02-20 18:25:00,73.4,19.6,24.95,SW,225,22.6,25.7,13,0.00,,---,58.85,VWS V14.01,2013-02-21 00:25:00,
2013-02-20 18:30:00,73.2,21.2,24.95,SW,225,26.2,26.2,14,0.00,,---,58.85,VWS V14.01,2013-02-21 00:30:00,
2013-02-20 18:35:00,72.9,20.9,24.95,SW,225,22.6,23.7,14,0.00,,---,58.85,VWS V14.01,2013-02-21 00:35:00,
2013-02-20 18:40:00,72.7,20.8,24.95,SSW,202,17.2,17.2,14,0.00,,---,58.85,VWS V14.01,2013-02-21 00:40:00,
2013-02-20 18:45:00,72.0,20.2,24.95,SW,225,16.3,16.3,14,0.00,,---,58.85,VWS V14.01,2013-02-21 00:45:00,
2013-02-20 18:50:00,72.3,20.5,24.95,SW,225,17.7,17.7,14,0.00,,---,58.85,VWS V14.01,2013-02-21 00:50:00,
2013-02-20 18:55:00,71.6,19.9,24.95,SW,225,13.2,19.7,14,0.00,,---,58.85,VWS V14.01,2013-02-21 00:55:00,
2013-02-20 19:00:00,71.6,19.9,24.95,SSW,202,13.6,22.6,14,0.00,,---,58.85,VWS V14.01,2013-02-21 01:00:00,
2013-02-20 19:05:00,71.8,20.1,24.95,SW,225,20.1,20.1,14,0.00,,---,58.85,VWS V14.01,2013-02-21 01:05:00,
2013-02-20 19:10:00,71.6,19.9,24.95,SW,225,28.9,28.9,14,0.00,,---,58.85,VWS V14.01,2013-02-21 01:10:00,
2013-02-20 19:15:00,71.6,19.9,24.98,SW,225,19.9,19.9,14,0.00,,---,58.85,VWS V14.01,2013-02-21 01:15:00,
2013-02-20 19:20:00,70.7,19.2,24.98,SW,225,13.2,22.8,14,0.00,,---,58.85,VWS V14.01,2013-02-21 01:20:00,
2013-02-20 19:25:00,70.3,18.9,24.98,SW,225,17.0,17.0,14,0.00,,---,58.85,VWS V14.01,2013-02-21 01:25:00,
2013-02-20 19:30:00,70.5,19.1,24.98,SSW,202,23.5,23.5,14,0.00,,---,58.85,VWS V14.01,2013-02-21 01:30:00,
2013-02-20 19:35:00,70.2,18.8,24.98,SW,225,13.2,13.2,14,0.00,,---,58.85,VWS V14.01,2013-02-21 01:35:00,
2013-02-20 19:40:00,70.5,19.1,24.98,SW,225,20.6,25.7,14,0.00,,---,58.85,VWS V14.01,2013-02-21 01:40:00,
2013-02-20 19:45:00,70.9,19.4,24.98,SSW,202,32.9,32.9,14,0.00,,---,58.85,VWS V14.01,2013-02-21 01:45:00,
2013-02-20 19:50:00,70.5,19.1,24.98,SSW,202,35.4,35.4,14,0.00,,---,58.85,VWS V14.01,2013-02-21 01:50:00,
2013-02-20 19:55:00,70.2,18.8,24.98,SSW,202,29.8,33.3,14,0.00,,---,58.85,VWS V14.01,2013-02-21 01:55:00,
2013-02-20 20:00:00,70.5,19.1,24.98,SW,225,30.9,30.9,14,0.00,,---,58.85,VWS V14.01,2013-02-21 02:00:00,
2013-02-20 20:05:00,70.7,19.2,24.98,SW,225,27.7,27.7,14,0.00,,---,58.85,VWS V14.01,2013-02-21 02:05:00,
2013-02-20 20:10:00,70.0,18.6,24.98,SW,225,19.5,19.5,14,0.00,,---,58.85,VWS V14.01,2013-02-21 02:10:00,
2013-02-20 20:15:00,70.2,18.8,24.98,SSW,202,19.5,19.5,14,0.00,,---,58.85,VWS V14.01,2013-02-21 02:15:00,
2013-02-20 20:20:00,69.8,18.5,24.98,SSW,202,23.0,23.0,14,0.00,,---,58.85,VWS V14.01,2013-02-21 02:20:00,
2013-02-20 20:25:00,69.3,19.7,24.98,SSW,202,17.7,17.7,15,0.00,,---,58.85,VWS V14.01,2013-02-21 02:25:00,
2013-02-20 20:30:00,69.4,19.8,24.98,SW,225,15.4,23.0,15,0.00,,---,58.85,VWS V14.01,2013-02-21 02:30:00,
2013-02-20 20:35:00,68.9,19.4,24.98,SSW,202,14.8,14.8,15,0.00,,---,58.85,VWS V14.01,2013-02-21 02:35:00,
2013-02-20 20:40:00,68.7,19.2,24.98,SW,225,22.6,22.6,15,0.00,,---,58.85,VWS V14.01,2013-02-21 02:40:00,
2013-02-20 20:45:00,68.5,19.1,25.01,SSW,202,24.4,24.4,15,0.00,,---,58.85,VWS V14.01,2013-02-21 02:45:00,
2013-02-20 20:50:00,68.9,19.4,25.01,SSW,202,22.8,22.8,15,0.00,,---,58.85,VWS V14.01,2013-02-21 02:50:00,
2013-02-20 20:55:00,68.2,18.8,25.01,South,180,17.5,17.5,15,0.00,,---,58.85,VWS V14.01,2013-02-21 02:55:00,
2013-02-20 21:00:00,68.2,18.8,25.01,SSW,202,16.8,16.8,15,0.00,,---,58.85,VWS V14.01,2013-02-21 03:00:00,
2013-02-20 21:05:00,68.0,18.7,25.01,SSW,202,15.2,22.4,15,0.00,,---,58.85,VWS V14.01,2013-02-21 03:05:00,
2013-02-20 21:10:00,67.6,18.4,25.01,SSW,202,16.6,21.0,15,0.00,,---,58.85,VWS V14.01,2013-02-21 03:10:00,
2013-02-20 21:15:00,67.5,18.2,25.01,SSW,202,13.6,13.6,15,0.00,,---,58.85,VWS V14.01,2013-02-21 03:15:00,
2013-02-20 21:20:00,66.7,17.6,25.01,SSW,202,17.5,17.5,15,0.00,,---,58.85,VWS V14.01,2013-02-21 03:20:00,
2013-02-20 21:25:00,66.4,17.4,25.01,SSW,202,15.2,15.2,15,0.00,,---,58.85,VWS V14.01,2013-02-21 03:25:00,
2013-02-20 21:30:00,66.2,17.2,25.01,SSW,202,12.8,12.8,15,0.00,,---,58.85,VWS V14.01,2013-02-21 03:30:00,
2013-02-20 21:35:00,65.7,16.8,25.01,SSW,202,12.1,12.1,15,0.00,,---,58.85,VWS V14.01,2013-02-21 03:35:00,
2013-02-20 21:40:00,65.5,16.6,25.01,SW,225,10.5,13.0,15,0.00,,---,58.85,VWS V14.01,2013-02-21 03:40:00,
2013-02-20 21:45:00,65.1,16.4,24.98,SSW,202,13.2,13.2,15,0.00,,---,58.85,VWS V14.01,2013-02-21 03:45:00,
2013-02-20 21:50:00,64.9,16.2,24.98,SW,225,17.5,17.5,15,0.00,,---,58.85,VWS V14.01,2013-02-21 03:50:00,
2013-02-20 21:55:00,64.6,15.9,24.98,SSW,202,12.8,12.8,15,0.00,,---,58.85,VWS V14.01,2013-02-21 03:55:00,
2013-02-20 22:00:00,64.8,16.1,24.98,SSW,202,10.1,13.2,15,0.00,,---,58.85,VWS V14.01,2013-02-21 04:00:00,
2013-02-20 22:05:00,64.9,16.2,24.98,SSW,202,9.8,9.8,15,0.00,,---,58.85,VWS V14.01,2013-02-21 04:05:00,
2013-02-20 22:10:00,63.9,16.8,24.98,SW,225,13.2,14.8,16,0.00,,---,58.85,VWS V14.01,2013-02-21 04:10:00,
2013-02-20 22:15:00,63.9,16.8,25.01,SW,225,11.0,11.0,16,0.00,,---,58.85,VWS V14.01,2013-02-21 04:15:00,
2013-02-20 22:20:00,63.9,16.8,25.01,SSW,202,13.2,13.2,16,0.00,,---,58.85,VWS V14.01,2013-02-21 04:20:00,
2013-02-20 22:25:00,63.5,16.5,25.01,SSW,202,11.9,12.8,16,0.00,,---,58.85,VWS V14.01,2013-02-21 04:25:00,
2013-02-20 22:30:00,62.8,15.9,25.01,SW,225,12.8,12.8,16,0.00,,---,58.85,VWS V14.01,2013-02-21 04:30:00,
2013-02-20 22:35:00,61.9,15.2,25.01,WSW,248,16.1,16.1,16,0.00,,---,58.85,VWS V14.01,2013-02-21 04:35:00,
2013-02-20 22:40:00,61.2,14.6,25.01,SW,225,14.1,14.1,16,0.00,,---,58.85,VWS V14.01,2013-02-21 04:40:00,
2013-02-20 22:45:00,59.5,14.7,25.04,WSW,248,13.2,13.2,17,0.00,,---,58.85,VWS V14.01,2013-02-21 04:45:00,
2013-02-20 22:50:00,59.0,14.3,25.04,SW,225,12.5,12.5,17,0.00,,---,58.85,VWS V14.01,2013-02-21 04:50:00,
2013-02-20 22:55:00,58.3,13.7,25.04,SW,225,9.4,11.2,17,0.00,,---,58.85,VWS V14.01,2013-02-21 04:55:00,
2013-02-20 23:00:00,57.9,13.4,25.07,WSW,248,11.4,12.5,17,0.00,,---,58.85,VWS V14.01,2013-02-21 05:00:00,
2013-02-20 23:05:00,58.3,13.7,25.07,SW,225,16.8,16.8,17,0.00,,---,58.85,VWS V14.01,2013-02-21 05:05:00,
2013-02-20 23:10:00,58.3,13.7,25.07,SW,225,15.2,15.2,17,0.00,,---,58.85,VWS V14.01,2013-02-21 05:10:00,
2013-02-20 23:15:00,57.7,13.2,25.07,West,270,16.3,16.3,17,0.00,,---,58.85,VWS V14.01,2013-02-21 05:15:00,
2013-02-20 23:20:00,57.2,12.8,25.07,SW,225,12.5,12.8,17,0.00,,---,58.85,VWS V14.01,2013-02-21 05:20:00,
2013-02-20 23:25:00,56.7,12.4,25.07,SW,225,15.4,16.6,17,0.00,,---,58.85,VWS V14.01,2013-02-21 05:25:00,
2013-02-20 23:30:00,56.5,12.2,25.07,SW,225,13.0,13.0,17,0.00,,---,58.85,VWS V14.01,2013-02-21 05:30:00,
2013-02-20 23:35:00,56.1,11.9,25.07,SW,225,10.3,10.7,17,0.00,,---,58.85,VWS V14.01,2013-02-21 05:35:00,
2013-02-20 23:40:00,56.5,12.2,25.07,WSW,248,22.2,22.2,17,0.00,,---,58.85,VWS V14.01,2013-02-21 05:40:00,
2013-02-20 23:45:00,56.3,12.1,25.07,WSW,248,12.8,12.8,17,0.00,,---,58.85,VWS V14.01,2013-02-21 05:45:00,
2013-02-20 23:50:00,56.3,12.1,25.07,SW,225,15.9,15.9,17,0.00,,---,0.00,VWS V14.01,2013-02-21 05:50:00,
2013-02-20 23:55:00,55.9,11.8,25.07,SW,225,21.9,21.9,17,0.00,,---,0.00,VWS V14.01,2013-02-21 05:55:00,